This is the latest recevied weather packets stored in our database for station/object KG5VSR. If no packets are shown the sender has not sent any weather packets the latest 10 day(s).
| Time | Temp. | Humidity | Pressure | Rain* | Wind** | Luminosity | Snow |
|---|---|---|---|---|---|---|---|
| 1777810616 | 11.67° C | 93% | 1021.4 hPa | 0 mm | - | 20 W/m² | - |
| 1777808811 | 11.67° C | 92% | 1021.1 hPa | 0 mm | - | 4 W/m² | - |
| 1777807006 | 11.67° C | 90% | 1020.9 hPa | 0 mm | - | 0 W/m² | - |
| 1777805205 | 12.22° C | 87% | 1020.8 hPa | 0 mm | - | 0 W/m² | - |
| 1777803404 | 12.78° C | 85% | 1020.5 hPa | 0 mm | - | 0 W/m² | - |
| 1777801601 | 13.33° C | 84% | 1020.6 hPa | 0 mm | - | 0 W/m² | - |
| 1777799797 | 12.78° C | 86% | 1020.3 hPa | 0 mm | - | 0 W/m² | - |
| 1777797992 | 12.78° C | 85% | 1020.3 hPa | 0 mm | - | 0 W/m² | - |
| 1777796189 | 12.78° C | 84% | 1020.3 hPa | 0 mm | - | 0 W/m² | - |
| 1777794386 | 13.33° C | 81% | 1020.4 hPa | 0 mm | - | 0 W/m² | - |
| 1777792585 | 13.89° C | 77% | 1020.8 hPa | 0 mm | - | 0 W/m² | - |
| 1777790780 | 13.89° C | 77% | 1020.8 hPa | 0 mm | - | 0 W/m² | - |
| 1777788977 | 14.44° C | 74% | 1020.6 hPa | 0 mm | - | 0 W/m² | - |
| 1777787174 | 15.56° C | 70% | 1020.8 hPa | 0 mm | - | 0 W/m² | - |
| 1777785373 | 16.11° C | 67% | 1020.3 hPa | 0 mm | - | 0 W/m² | - |
| 1777783573 | 17.22° C | 64% | 1020.5 hPa | 0 mm | - | 0 W/m² | - |
| 1777781771 | 17.78° C | 62% | 1020.2 hPa | 0 mm | - | 0 W/m² | - |
| 1777779967 | 16.67° C | 66% | 1020.5 hPa | 0 mm | - | 0 W/m² | - |
| 1777778164 | 16.67° C | 66% | 1020.2 hPa | 0 mm | - | 0 W/m² | - |
| 1777776362 | 16.67° C | 63% | 1020.2 hPa | 0 mm | - | 0 W/m² | - |
| 1777774560 | 17.78° C | 63% | 1019.6 hPa | 0 mm | - | 0 W/m² | - |
| 1777772757 | 18.89° C | 59% | 1019.4 hPa | 0 mm | - | 0 W/m² | - |
| 1777770958 | 20.56° C | 53% | 1019.3 hPa | 0 mm | - | 0 W/m² | - |
| 1777769156 | 23.33° C | 46% | 1019.2 hPa | 0 mm | - | 14 W/m² | - |
| 1777767355 | 24.44° C | 39% | 1019 hPa | 0 mm | - | 33 W/m² | - |
* Rain latest hour (hover to see other rain measurements)
** Current wind speed in m/s (hover to see current wind gust speed)